Location: Newark
(44.6768°N, 22.5302°E)
Time: 04:10:45
(UTC+00:00)

CAS-6 - Pass Details

Date: 01 July 2022
Orbit: 613 x 634 km, 97.9° (Epoch: 13 August)

Event Time Altitude Azimuth Distance (km) Brightness Sun altitude
Exits shadow 20:01:41 19° 119° (ESE) 1,481 ? -13.9°
Maximum altitude 20:04:03 33° 69° (ENE) 1,062 ? -14.1°
Drops below altitude 10° 20:07:57 10° 5° (N) 2,003 ? -14.5°
Sets 20:10:18 0° 356° (N) 2,910 ? -14.7°
